Вернуться в каталог

ONDOSAT-OWL-11

АктивенЛюбительское радиоVLEO
NORAD 62385·PAYLOAD·🇲🇳 Mongolia

Запущен Dec 21, 2024 с Vandenberg Space Force Base

Loading…

Ближайшие Пролёты (ближайшие 24 часа)

TLE

СвежийSource: Space-Track

Эпоха: Sep 14, 2026, 14:37 UTC

1 62385U 24247J   26257.60946324  .00052698  00000-0  65280-3 0  9993
2 62385  44.9969 102.8717 0006623 210.0818 149.9697 15.59315662 97374

Отслеживайте ONDOSAT-OWL-11 в реальном времени с AllMySat

Download on the App Store